Flag for U.S.A. Weather past 2 weeks in Las Cruces, New Mexico, U.S.A.

Now
67 °F

Thundershowers. Mostly cloudy.


Feels Like: 67 °F
Forecast: 68 / 89 °F
Wind: 12 mph from West

Location: Las Cruces International

Current Time: Jul 31, 2015 at 4:21:13 AM

Latest Report: Jul 31, 2015 at 3:55 AM


Visibility: 10 mi

Pressure: 30.30 "Hg (26.37 "Hg at 1187m altitude)

Humidity: 89%

Dew point: 63 °F

Location of Las CrucesLocation

Historic Weather in Las Cruces — Graph

°F

Las Cruces temperature yesterday

Maximum temperature yesterday: 84 °F (at 5:55 PM)
Minimum temperature yesterday: 64 °F (at 6:35 AM)
Average temperature yesterday: 73 °F

Past Weeks' High & Low Weather Summary

 TemperatureHumidityPressure
High99 °F (Jul 25, 3:55 PM)98% (Jul 30, 6:35 AM)30.33 "Hg (Jul 30, 6:35 AM)
Low64 °F (Jul 30, 6:35 AM)16% (Jul 25, 3:55 PM)29.93 "Hg (Jul 21, 5:55 PM)
Average80 °F49%30.11 "Hg
* Reported Jul 16 3:15 AM — Jul 31 3:15 AM, Las Cruces, Weather by CustomWeather, © 2015

Note: Actual official high and low records may vary slightly from our data, if they occured in-between our weather recording intervals... More about our weather records

Advertising

Las Cruces weather history for previous 24 hours

 ConditionsComfort  
Time TempWeatherWind HumidityBarometerVisibility
3:15 AM
Fri, Jul 31
67 °FThundershowers. Partly cloudy.9 mph90%30.29 "Hg10 mi
2:55 AM67 °FRain. Overcast.9 mph87%30.29 "Hg10 mi
2:35 AM67 °FThunderstorms. Overcast.9 mph83%30.29 "Hg10 mi
2:15 AM66 °FLight rain. Overcast.No wind87%30.27 "Hg10 mi
1:35 AM70 °FThundershowers. Overcast.33 mph73%30.30 "Hg7 mi
1:15 AM75 °FThunderstorms. Overcast.5 mph73%30.28 "Hg10 mi
12:55 AM75 °FThundershowers. Overcast.6 mph74%30.26 "Hg10 mi
12:15 AM76 °FClear.8 mph71%30.24 "Hg10 mi
11:55 PM
Thu, Jul 30
75 °FClear.6 mph75%30.24 "Hg10 mi
11:15 PM76 °FPassing clouds.5 mph75%30.25 "Hg10 mi
10:55 PM76 °FPassing clouds.3 mph76%30.25 "Hg10 mi
10:35 PM76 °FClear.3 mph77%30.25 "Hg10 mi
10:15 PM76 °FClear.No wind74%30.25 "Hg10 mi
9:55 PM77 °FClear.No wind72%30.25 "Hg10 mi
9:15 PM77 °FClear.No wind67%30.23 "Hg10 mi
8:55 PM78 °FSunny.5 mph63%30.23 "Hg10 mi
8:35 PM78 °FSunny.No wind70%30.23 "Hg10 mi
8:15 PM80 °FSunny.No wind59%30.22 "Hg10 mi
7:55 PM82 °FSunny.No wind50%30.21 "Hg10 mi
7:30 PM82 °FSunny.No wind49%30.21 "Hg10 mi
7:15 PM83 °FSunny.No wind42%30.21 "Hg10 mi
6:55 PM83 °FSunny.No wind38%30.20 "Hg10 mi
6:35 PM84 °FSunny.No wind36%30.21 "Hg10 mi
6:15 PM84 °FSunny.No wind38%30.21 "Hg10 mi
5:55 PM84 °FSunny.No wind41%30.20 "Hg10 mi
5:35 PM83 °FSunny.3 mph45%30.20 "Hg10 mi
5:15 PM83 °FSunny.No wind45%30.21 "Hg10 mi
4:55 PM83 °FSunny.5 mph47%30.21 "Hg10 mi
4:35 PM82 °FSunny.No wind46%30.22 "Hg10 mi
3:15 PM81 °FSunny.5 mph51%30.25 "Hg10 mi
2:55 PM80 °FSunny.No wind53%30.26 "Hg10 mi
2:35 PM80 °FSunny.No wind55%30.27 "Hg10 mi
2:15 PM79 °FSunny.No wind56%30.28 "Hg10 mi
1:55 PM78 °FSunny.5 mph57%30.29 "Hg10 mi
1:35 PM78 °FSunny.3 mph56%30.30 "Hg10 mi
1:15 PM78 °FScattered clouds.No wind58%30.30 "Hg10 mi
12:55 PM77 °FSunny.No wind60%30.31 "Hg10 mi
12:35 PM76 °FSunny.5 mph60%30.30 "Hg10 mi
12:15 PM76 °FSunny.5 mph63%30.31 "Hg10 mi
11:55 AM75 °FSunny.6 mph64%30.31 "Hg10 mi
11:35 AM75 °FSunny.No wind63%30.31 "Hg10 mi
11:15 AM74 °FSunny.7 mph64%30.31 "Hg10 mi
10:55 AM73 °FSunny.8 mph75%30.31 "Hg10 mi
10:35 AM72 °FSunny.6 mph70%30.31 "Hg10 mi
10:15 AM71 °FSunny.10 mph77%30.31 "Hg10 mi
9:55 AM70 °FSunny.10 mph77%30.31 "Hg10 mi
9:35 AM69 °FSunny.8 mph82%30.31 "Hg10 mi
9:15 AM67 °FScattered clouds.7 mph86%30.31 "Hg10 mi
8:55 AM66 °FScattered clouds.7 mph88%30.31 "Hg10 mi
8:35 AM66 °FScattered clouds.8 mph92%30.32 "Hg10 mi
8:15 AM65 °FScattered clouds.6 mph95%30.33 "Hg10 mi
7:55 AM65 °FPartly sunny.3 mph96%30.32 "Hg10 mi
7:15 AM64 °FRain. Overcast.6 mph96%30.31 "Hg10 mi
6:55 AM64 °FLight rain. Overcast.5 mph97%30.31 "Hg10 mi
6:35 AM64 °FRain. Mostly cloudy.8 mph98%30.29 "Hg7 mi
6:15 AM64 °FRain. Mostly cloudy.8 mph97%30.29 "Hg4 mi
5:55 AM64 °FLight rain. Overcast.8 mph97%30.29 "Hg5 mi
5:35 AM65 °FRain. Overcast.6 mph96%30.29 "Hg7 mi
5:15 AM64 °FHeavy rain. Mostly cloudy.5 mph95%30.29 "Hg5 mi
4:55 AM64 °FRain. Mostly cloudy.6 mph95%30.28 "Hg7 mi
4:15 AM65 °FThundershowers. Mostly cloudy.9 mph94%30.29 "Hg7 mi
Weather by CustomWeather, © 2015

See weather overviewHow to use our weather pages